EW0890 Weather Reports


time (UTC)temp
F
wind
direction
speed
knots
gust
knots
rain 1hr
in
rain 24hr
in
rain mn
in
humidity
%
barometer
mb
20260506153507 51 18 0.0 3.5 0.00 0.04 0.00 69 1014.5
20260506153015 51 49 0.9 3.5 0.00 0.04 0.00 66 1014.5
20260506152506 51 11 0.9 3.5 0.00 0.04 0.00 69 1014.5
20260506151511 50 64 0.9 2.6 0.00 0.04 0.00 71 1014.4
20260506151003 50 69 0.9 3.5 0.00 0.04 0.00 71 1014.5
20260506150505 50 48 0.9 3.5 0.00 0.04 0.00 70 1014.4
20260506145504 49 9 1.7 4.3 0.00 0.04 0.00 72 1014.2
20260506145003 49 36 0.9 3.5 0.00 0.04 0.00 70 1014.2
20260506144532 49 49 1.7 3.5 0.00 0.04 0.00 70 1014.2
20260506144003 49 61 1.7 4.3 0.00 0.04 0.00 70 1014.2
20260506143504 48 51 0.9 4.3 0.00 0.04 0.00 72 1014.2
20260506143016 48 51 2.6 3.5 0.00 0.04 0.00 70 1014.3
20260506142505 48 46 1.7 3.5 0.00 0.04 0.00 70 1014.2
20260506142004 48 40 0.9 2.6 0.00 0.04 0.00 73 1014.3
20260506141516 48 34 0.0 1.7 0.00 0.04 0.00 76 1014.4
20260506140504 47 278 0.9 2.6 0.00 0.04 0.00 78 1014.4
20260506140015 47 297 0.0 0.9 0.00 0.04 0.00 79 1014.3
20260506135504 47 285 0.0 0.9 0.00 0.04 0.00 81 1014.2
20260506135003 46 279 0.0 0.9 0.00 0.04 0.00 81 1014.3
20260506134516 46 283 0.0 0.9 0.00 0.04 0.00 81 1014.3
20260506134006 46 283 0.0 0.9 0.00 0.04 0.00 82 1014.3
20260506133504 46 283 0.0 1.7 0.00 0.04 0.00 82 1014.5
20260506133014 46 283 0.0 2.6 0.00 0.04 0.00 83 1014.6
20260506132505 46 274 1.7 2.6 0.00 0.04 0.00 83 1014.5
20260506132005 45 271 0.0 0.9 0.00 0.04 0.00 82 1014.4
20260506131514 45 271 0.0 0.9 0.00 0.04 0.00 83 1014.4
20260506130507 45 263 0.0 0.9 0.00 0.04 0.00 83 1014.4
20260506124515 45 38 0.0 0.9 0.00 0.04 0.00 83 1013.7
20260506124004 45 231 0.0 0.9 0.00 0.04 0.00 84 1013.5
20260506123504 45 304 0.0 1.7 0.00 0.04 0.00 84 1013.4
20260506123024 45 303 0.0 1.7 0.00 0.04 0.00 84 1013.2
20260506122505 45 314 0.9 1.7 0.00 0.04 0.00 85 1013.3
20260506122007 44 328 0.0 1.7 0.00 0.04 0.00 87 1013.2
20260506121514 43 300 0.0 0.9 0.00 0.04 0.00 88 1013.1
20260506121004 42 266 0.0 0.9 0.00 0.04 0.00 89 1013.0
20260506120507 42 265 0.0 0.9 0.00 0.04 0.00 89 1012.9
20260506120023 41 265 0.0 0.9 0.00 0.04 0.00 89 1013.0
20260506115509 41 266 0.0 0.9 0.00 0.04 0.00 89 1012.8
20260506113507 40 265 0.0 0.9 0.00 0.04 0.00 90 1012.2
20260506113017 40 265 0.0 0.9 0.00 0.04 0.00 90 1012.2
20260506112508 39 266 0.0 0.9 0.00 0.04 0.00 91 1012.1
20260506112007 39 266 0.0 0.9 0.00 0.04 0.00 91 1011.9
20260506111522 39 266 0.0 0.9 0.00 0.05 0.00 91 1011.9
20260506111008 39 266 0.0 0.9 0.00 0.05 0.00 92 1012.1
20260506110509 39 266 0.0 0.9 0.00 0.05 0.00 92 1011.9
20260506110018 39 266 0.0 0.9 0.00 0.05 0.00 91 1011.9
20260506105507 39 346 0.0 0.0 0.00 0.05 0.00 91 1011.7
20260506105004 39 346 0.0 0.0 0.00 0.05 0.00 91 1011.5
20260506104526 39 346 0.0 0.0 0.00 0.05 0.00 90 1011.4
20260506104007 39 346 0.0 0.0 0.00 0.05 0.00 90 1011.5
20260506102005 40 346 0.0 0.9 0.00 0.05 0.00 89 1011.5
20260506101511 40 346 0.0 0.9 0.00 0.05 0.00 89 1011.6
20260506101004 40 346 0.0 0.9 0.00 0.05 0.00 89 1011.5
20260506100505 40 346 0.0 0.9 0.00 0.05 0.00 89 1011.4
20260506100019 40 346 0.0 0.9 0.00 0.05 0.00 88 1011.4
20260506095503 41 346 0.0 0.9 0.00 0.05 0.00 88 1011.3
20260506095003 41 319 0.0 0.9 0.00 0.05 0.00 87 1011.2
20260506094515 41 319 0.0 0.9 0.00 0.05 0.00 87 1011.1
20260506094004 41 319 0.0 0.0 0.00 0.05 0.00 87 1011.0
20260506093503 42 319 0.0 0.0 0.00 0.05 0.00 86 1010.8
20260506093006 42 319 0.0 0.0 0.00 0.05 0.00 85 1010.8
20260506092504 42 319 0.0 0.0 0.00 0.05 0.00 84 1010.6
20260506092004 43 319 0.0 0.9 0.00 0.05 0.00 84 1010.6
20260506091508 43 319 0.0 0.9 0.00 0.05 0.00 84 1011.0
20260506091007 43 319 0.0 0.9 0.00 0.05 0.00 83 1011.1
20260506090506 43 309 0.0 1.7 0.00 0.05 0.00 83 1011.2
20260506090015 43 309 0.9 1.7 0.00 0.05 0.00 83 1011.1
20260506085508 43 307 0.0 0.0 0.00 0.05 0.00 84 1011.2
20260506084515 43 307 0.0 0.9 0.00 0.05 0.00 84 1011.4
20260506084004 44 307 0.0 0.9 0.00 0.05 0.00 83 1011.3
20260506083504 44 307 0.0 0.9 0.00 0.05 0.00 82 1011.2
20260506082508 44 295 0.0 0.9 0.00 0.05 0.00 83 1010.9
20260506082004 44 287 0.0 0.9 0.00 0.05 0.00 83 1010.9
20260506081513 44 304 0.0 0.0 0.00 0.05 0.00 83 1010.8
20260506081003 44 304 0.0 0.0 0.00 0.05 0.00 83 1010.7
20260506080504 44 304 0.0 1.7 0.00 0.05 0.00 82 1010.6
20260506073507 46 309 0.0 0.9 0.00 0.05 0.00 79 1010.6
20260506073018 46 291 0.0 1.7 0.00 0.05 0.00 80 1010.6
20260506072509 46 313 0.0 2.6 0.00 0.05 0.00 79 1010.5
20260506072008 47 293 0.0 5.2 0.00 0.05 0.00 77 1010.5
20260506071519 47 289 1.7 5.2 0.00 0.05 0.00 79 1010.6
20260506071005 46 282 3.5 5.2 0.00 0.05 0.00 81 1010.7
20260506070504 46 281 3.5 4.3 0.00 0.05 0.00 81 1010.7
20260506061518 46 288 1.7 2.6 0.00 0.05 0.00 84 1010.5
20260506061007 46 282 0.9 1.7 0.00 0.05 0.00 86 1010.4
20260506060505 46 281 0.9 0.9 0.00 0.05 0.00 87 1010.5
20260506050510 49 3 0.0 0.0 0.00 0.05 0.00 85 1010.5
20260506045008 49 3 0.0 0.0 0.00 0.05 0.05 81 1010.2
20260506044007 49 3 0.0 0.9 0.00 0.05 0.05 77 1010.4
20260506043510 49 3 0.0 0.9 0.00 0.05 0.05 79 1010.2
20260506043010 49 3 0.0 0.9 0.00 0.05 0.05 78 1010.4
20260506042505 49 79 0.0 0.0 0.00 0.05 0.05 69 1010.3
20260506041514 49 79 0.0 2.6 0.00 0.06 0.05 77 1010.2
20260506041007 49 79 0.9 2.6 0.00 0.06 0.05 75 1010.4
20260506035508 49 221 0.0 3.5 0.00 0.06 0.05 77 1010.8
20260506035009 49 137 1.7 3.5 0.00 0.06 0.05 80 1010.4
20260506034522 49 127 1.7 3.5 0.00 0.06 0.05 83 1010.5
20260506034005 49 258 0.0 0.0 0.00 0.07 0.05 86 1010.7
20260506033507 49 281 0.0 0.9 0.00 0.08 0.05 86 1010.7
20260506033027 49 281 0.0 0.9 0.00 0.09 0.05 86 1010.7
20260506032506 49 290 0.0 0.0 0.00 0.09 0.05 84 1010.7
20260506032009 49 290 0.0 0.0 0.00 0.10 0.05 82 1010.9
20260506031006 49 290 0.0 0.0 0.00 0.14 0.05 83 1011.0
20260506030504 49 290 0.0 0.0 0.00 0.15 0.05 83 1011.0
20260506025504 49 290 0.0 0.0 0.00 0.19 0.05 82 1010.9
20260506025008 49 290 0.0 0.0 0.00 0.25 0.05 80 1010.8
20260506024527 49 301 0.0 0.0 0.00 0.31 0.05 81 1010.4
20260506024008 49 43 0.0 0.0 0.00 0.40 0.05 82 1010.4
20260506023508 49 85 0.0 0.0 0.00 0.40 0.05 81 1010.3
20260506023023 49 85 0.0 0.0 0.00 0.40 0.05 80 1010.2
20260506022509 49 85 0.0 0.0 0.00 0.40 0.05 80 1010.0
20260506022009 49 85 0.0 0.0 0.00 0.40 0.05 80 1009.9
20260506021522 49 85 0.0 0.0 0.00 0.40 0.05 79 1009.9
20260506021006 49 84 0.0 0.0 0.00 0.40 0.05 79 1009.9
20260506020506 49 84 0.0 0.9 0.00 0.40 0.05 80 1009.9
20260506015504 49 352 0.0 0.9 0.00 0.40 0.05 81 1009.9
20260506015007 49 352 0.0 0.0 0.00 0.40 0.05 83 1009.9
20260506014005 49 352 0.0 0.0 0.00 0.40 0.05 83 1009.8
20260506013510 50 352 0.0 0.0 0.00 0.40 0.05 83 1009.7
20260506013021 50 352 0.0 0.0 0.00 0.40 0.05 81 1009.4
20260506012508 49 352 0.0 0.0 0.00 0.40 0.05 79 1009.4
20260506012010 50 352 0.0 0.9 0.00 0.40 0.05 78 1009.3
20260506011523 50 352 0.0 0.9 0.00 0.40 0.05 78 1009.2
20260506011006 50 352 0.0 0.9 0.00 0.40 0.05 77 1009.1
20260506010511 50 352 0.0 0.9 0.00 0.40 0.05 76 1009.1
20260506010046 50 352 0.0 0.9 0.00 0.40 0.05 74 1009.1
20260506005509 50 20 0.0 0.0 0.00 0.40 0.05 75 1009.1
20260506005006 50 20 0.0 0.0 0.00 0.40 0.05 75 1008.9
20260506004006 50 20 0.0 0.0 0.00 0.40 0.05 74 1008.7
20260506003506 50 20 0.0 0.0 0.00 0.40 0.05 73 1008.7
20260506002509 50 20 0.0 0.9 0.00 0.40 0.05 71 1008.5
20260506002008 50 20 0.0 0.9 0.00 0.40 0.05 72 1008.5
20260506001519 51 20 0.0 0.9 0.00 0.40 0.05 71 1008.7
20260506001009 51 20 0.0 0.9 0.00 0.40 0.05 71 1008.6
20260506000508 51 15 0.0 1.7 0.00 0.40 0.05 70 1008.7
20260506000024 51 15 0.0 1.7 0.00 0.40 0.05 69 1008.9
20260505235509 51 3 0.0 1.7 0.00 0.40 0.05 69 1009.0
20260505235011 51 67 0.0 1.7 0.00 0.40 0.05 68 1009.1
20260505234522 51 31 0.9 1.7 0.00 0.40 0.05 71 1009.1
20260505234009 51 326 0.9 1.7 0.00 0.40 0.05 74 1009.2
20260505233507 51 289 0.0 1.7 0.00 0.40 0.05 79 1009.1
20260505233014 51 345 0.0 1.7 0.00 0.40 0.05 80 1009.2
20260505232507 51 268 0.0 0.9 0.00 0.40 0.05 80 1009.2
20260505232005 51 355 0.0 1.7 0.00 0.40 0.05 78 1008.9
20260505231507 51 294 0.0 1.7 0.00 0.40 0.05 77 1008.9
20260505231004 51 305 0.9 2.6 0.00 0.40 0.05 77 1008.8
20260505230503 51 310 0.0 2.6 0.00 0.40 0.05 77 1008.7
20260505230003 51 269 0.0 1.7 0.00 0.40 0.05 78 1008.9
20260505225504 51 268 0.0 1.7 0.00 0.40 0.05 77 1008.8
20260505225003 51 308 0.9 1.7 0.00 0.40 0.05 75 1008.8
20260505224509 51 34 0.9 1.7 0.00 0.40 0.05 76 1008.8
20260505224004 51 255 0.9 2.6 0.00 0.40 0.05 75 1008.6
20260505223503 51 307 0.9 2.6 0.00 0.40 0.05 75 1008.7
20260505223014 51 319 0.0 1.7 0.00 0.40 0.05 76 1008.8
20260505222508 51 295 0.0 1.7 0.00 0.40 0.05 77 1008.5
20260505222007 51 295 0.0 1.7 0.00 0.40 0.05 74 1008.4
20260505221516 51 313 0.9 1.7 0.00 0.40 0.05 74 1008.5
20260505221009 51 20 0.9 1.7 0.00 0.40 0.05 74 1008.7
20260505220507 51 285 0.9 2.6 0.00 0.40 0.05 73 1008.8
20260505220004 51 90 0.0 2.6 0.00 0.40 0.05 73 1008.9
20260505215505 51 336 0.0 2.6 0.00 0.40 0.05 74 1008.9
20260505215003 51 281 0.0 1.7 0.00 0.40 0.05 72 1009.1
20260505214508 51 271 0.0 1.7 0.00 0.40 0.05 72 1009.2
20260505214003 51 330 0.9 2.6 0.00 0.40 0.05 73 1009.2
20260505213502 51 322 0.0 2.6 0.00 0.40 0.05 75 1009.3
20260505213020 51 337 0.0 0.9 0.00 0.40 0.05 73 1009.4
20260505212506 51 31 0.0 1.7 0.00 0.40 0.05 75 1009.5
20260505212004 50 344 0.0 1.7 0.00 0.40 0.05 73 1009.5
20260505211512 50 27 0.0 1.7 0.01 0.40 0.05 75 1009.5
20260505211006 50 287 0.0 1.7 0.01 0.40 0.05 76 1009.5
20260505210507 50 310 0.0 1.7 0.01 0.40 0.05 76 1009.8
20260505210018 50 300 0.9 1.7 0.01 0.40 0.05 75 1010.0
20260505205508 50 291 0.0 2.6 0.01 0.40 0.05 76 1009.9
20260505205008 50 65 0.0 2.6 0.01 0.40 0.05 73 1010.0
20260505204504 50 56 0.0 3.5 0.02 0.40 0.05 74 1010.0
20260505204005 50 270 0.0 3.5 0.02 0.40 0.05 74 1010.1
20260505203503 50 262 0.0 2.6 0.03 0.40 0.05 75 1010.1
20260505203005 50 55 0.9 2.6 0.03 0.40 0.05 75 1010.2
20260505202503 50 288 0.0 1.7 0.04 0.40 0.05 74 1010.2
20260505202006 50 340 0.9 1.7 0.04 0.40 0.05 75 1010.4
20260505201514 50 347 0.9 3.5 0.03 0.39 0.04 74 1010.4
20260505201004 50 34 0.0 3.5 0.03 0.39 0.04 76 1010.4
20260505200508 49 316 0.9 2.6 0.03 0.39 0.04 73 1010.3
20260505200018 49 333 0.0 2.6 0.03 0.39 0.04 76 1010.4
20260505195505 49 12 0.9 2.6 0.03 0.39 0.04 75 1010.3
20260505195007 50 316 0.9 3.5 0.03 0.39 0.04 76 1010.4
20260505194520 50 326 0.9 3.5 0.02 0.38 0.03 77 1010.4
20260505194008 50 347 0.9 4.3 0.02 0.38 0.03 78 1010.4
20260505193509 51 326 1.7 4.3 0.01 0.37 0.02 74 1010.4
20260505193004 51 347 1.7 3.5 0.01 0.37 0.02 73 1010.4
20260505192505 52 319 1.7 3.5 0.00 0.36 0.01 68 1010.6
20260505192005 52 289 0.9 4.3 0.00 0.36 0.01 67 1010.5
20260505191508 52 327 1.7 4.3 0.00 0.36 0.01 64 1010.4
20260505191005 53 38 1.7 4.3 0.00 0.36 0.01 62 1010.3
20260505190507 53 262 1.7 5.2 0.00 0.36 0.01 63 1010.2
20260505190022 53 360 1.7 5.2 0.00 0.36 0.01 66 1010.1
20260505185507 54 311 0.9 5.2 0.00 0.36 0.01 71 1010.0
20260505185005 54 153 0.9 4.3 0.00 0.36 0.01 70 1010.1
20260505184518 54 294 0.9 4.3 0.00 0.36 0.01 70 1010.0
20260505184007 54 11 0.9 3.5 0.00 0.36 0.01 74 1010.0
20260505183508 54 229 0.9 3.5 0.00 0.36 0.01 73 1010.0
20260505183020 54 259 0.9 3.5 0.00 0.36 0.01 74 1010.1
20260505182507 54 213 0.9 3.5 0.00 0.36 0.01 74 1010.1
20260505182009 54 345 0.9 3.5 0.00 0.36 0.01 73 1010.1
20260505181506 54 101 1.7 3.5 0.00 0.36 0.01 75 1009.9
20260505181004 54 278 0.9 3.5 0.00 0.36 0.01 74 1010.0
20260505180503 54 262 0.9 3.5 0.00 0.36 0.01 74 1010.0
20260505180011 54 289 0.9 5.2 0.00 0.36 0.01 75 1010.0
20260505175504 54 4 0.9 5.2 0.00 0.36 0.01 73 1010.0
20260505175006 55 340 1.7 3.5 0.00 0.36 0.01 73 1010.0
20260505174514 54 70 1.7 5.2 0.00 0.36 0.01 74 1010.0
20260505174007 54 226 0.9 5.2 0.00 0.36 0.01 79 1010.2
20260505173507 53 42 1.7 5.2 0.00 0.36 0.01 78 1010.3
20260505173023 52 288 0.9 3.5 0.00 0.36 0.01 75 1010.3
20260505172506 52 281 0.9 3.5 0.00 0.36 0.01 77 1010.1
20260505172007 51 58 1.7 3.5 0.00 0.36 0.01 78 1010.2
20260505171529 51 317 0.9 5.2 0.00 0.36 0.01 79 1010.0
20260505171009 51 63 2.6 5.2 0.00 0.36 0.01 77 1010.0
20260505170509 51 343 2.6 5.2 0.00 0.36 0.01 78 1009.8
20260505170009 51 336 1.7 5.2 0.00 0.36 0.01 78 1009.9
20260505165506 51 254 0.9 3.5 0.00 0.36 0.01 78 1010.1
20260505165004 51 44 0.9 2.6 0.00 0.36 0.01 77 1010.3
20260505164509 51 233 0.0 3.5 0.00 0.36 0.01 79 1010.2
20260505164004 51 328 0.0 4.3 0.00 0.36 0.01 79 1010.2
20260505163504 51 56 2.6 5.2 0.00 0.36 0.01 80 1010.0
20260505163012 51 330 2.6 5.2 0.00 0.36 0.01 80 1010.0
20260505162505 50 55 2.6 5.2 0.00 0.36 0.01 79 1010.0
20260505162008 51 63 1.7 4.3 0.00 0.36 0.01 81 1009.8
20260505161519 51 44 1.7 4.3 0.00 0.36 0.01 80 1009.7
20260505161007 51 68 1.7 3.5 0.00 0.36 0.01 82 1009.6
20260505160515 51 76 1.7 6.1 0.00 0.36 0.01 80 1009.5